Retour au catalogue

COSMOS 1058

ActifMilitaireLEO
NORAD 11135·PAYLOAD·🇷🇺 Russia

Lancé Dec 5, 1978 depuis Plesetsk Cosmodrome

Loading…

Prochains Passages (prochaines 24 heures)

TLE

FraisSource: Space-Track

Époque: Sep 14, 2026, 12:55 UTC

1 11135U 78109H   26257.53841844 -.00000014  00000-0  11398-4 0  9997
2 11135  74.0145 284.6684 0035737 111.4266  42.6950 12.39504311161731

Suivez COSMOS 1058 en temps réel avec AllMySat

Download on the App Store